Wind_Speed
23 22 23 23 23 23 23 25 24 23 25 27 26 26 27 28 29 28 30 25 18 14 16 12 13 15 16 10 6 5 3 4 6 7 4 0 2 1 3 9 4 6 6 8 28
22 23 24 24 24 24 24 25 26 25 24 23 26 28 25 25 29 34 31 31 26 18 25 20 17 17 10 8 7 4 4 9 4 4 4 1 2 4 3 4 2 4 7 21 28
23 24 26 26 26 26 26 25 26 27 28 26 22 24 27 20 26 32 15 12 15 22 20 18 15 19 9 8 8 6 5 4 3 2 5 3 2 1 7 2 6 8 17 32 30
23 25 24 25 26 27 27 26 27 28 27 26 25 20 24 13 8 2 2 4 7 22 20 21 18 13 6 6 9 3 8 6 3 3 3 2 2 1 4 1 3 7 15 31 32
24 25 25 25 27 27 28 28 29 29 28 27 23 18 20 12 29 20 16 11 14 19 26 25 21 12 7 6 6 5 4 9 15 9 5 4 4 5 6 7 5 8 18 26 30
25 26 27 28 29 30 31 32 31 25 27 28 24 16 15 20 24 19 15 20 20 21 24 24 14 21 9 5 7 5 10 10 7 6 5 6 5 7 8 15 10 12 18 23 28
26 27 29 31 32 34 33 35 35 27 27 25 22 16 19 39 18 17 5 16 21 20 22 24 21 17 8 2 8 3 3 1 4 5 5 7 5 7 19 13 16 19 21 24 26
27 29 31 33 35 37 38 38 35 29 22 18 17 14 15 20 9 27 24 19 25 20 19 16 17 11 5 5 4 5 3 3 3 6 5 7 8 3 5 13 16 17 22 25 27
29 30 33 36 38 38 39 38 36 28 11 13 8 11 12 4 12 18 20 25 26 22 17 13 15 8 6 6 3 3 3 4 4 7 4 6 4 5 6 15 16 17 21 25 25
31 34 35 36 38 39 37 39 30 10 7 10 3 6 11 7 10 25 21 25 18 17 14 11 6 4 3 4 9 4 2 2 4 2 4 4 6 5 2 5 8 13 13 19 21
31 34 35 36 35 31 35 33 27 7 25 22 27 26 30 29 28 10 11 25 18 20 6 3 3 11 6 4 5 4 3 4 3 4 5 7 7 8 4 2 8 11 13 17 19
32 34 35 38 36 24 25 19 21 19 21 31 32 34 37 31 15 19 9 13 12 6 5 4 8 4 7 5 5 4 4 3 4 3 4 3 7 8 2 1 3 10 15 21 22
32 34 35 38 25 26 20 20 21 21 7 21 13 11 11 3 17 17 2 3 6 6 4 5 3 11 8 5 6 3 6 3 6 2 2 1 5 5 2 3 1 2 14 22 24
32 34 34 36 16 28 19 25 18 18 4 6 7 6 12 4 5 19 8 12 4 9 9 5 4 6 4 4 8 5 9 10 5 2 3 3 4 5 1 1 2 3 12 18 21
31 34 38 23 20 23 30 22 15 3 3 8 6 6 25 6 4 5 19 9 4 7 6 7 3 5 5 6 9 3 4 5 3 4 1 2 3 6 2 3 5 6 11 15 16
33 33 34 17 20 26 27 18 4 5 4 7 7 11 9 7 3 5 9 3 5 4 3 5 2 3 6 4 7 6 6 7 4 3 2 5 4 4 3 5 3 4 12 15 15
31 33 20 16 21 28 21 8 5 4 6 9 8 10 6 6 4 6 2 6 3 5 4 0 3 3 3 8 5 5 6 2 2 2 5 3 2 7 4 0 3 7 15 15 13
32 31 12 20 26 22 18 5 6 4 4 5 7 12 3 8 4 3 3 3 1 3 3 5 4 3 6 5 7 3 6 5 6 3 3 4 5 5 2 6 6 15 16 13 9
30 25 16 23 26 17 7 5 4 4 6 8 14 4 5 2 3 3 1 1 5 6 5 4 3 2 4 3 2 4 3 3 6 1 2 3 5 2 2 4 6 14 14 11 6
32 18 14 24 18 12 5 3 2 7 8 4 3 4 4 6 5 1 4 1 2 3 2 3 5 3 3 4 8 2 5 3 3 2 4 4 4 4 4 6 5 4 8 5 4
25 9 14 22 12 10 3 4 6 14 13 3 3 4 5 5 3 5 5 3 2 3 3 4 4 2 2 2 7 3 1 4 4 3 5 1 5 4 5 7 8 7 5 2 4
18 3 16 22 8 3 2 9 11 6 11 4 3 3 4 5 5 4 4 6 11 1 3 3 4 3 1 2 2 1 5 4 4 4 2 3 5 3 4 5 12 11 6 5 8
14 7 11 17 3 3 6 6 4 6 6 5 4 5 4 4 4 5 7 7 12 3 3 2 1 3 3 3 4 2 2 4 5 3 5 5 4 2 3 2 11 9 9 9 9
7 4 7 7 5 2 5 4 10 12 5 6 4 6 8 4 3 4 5 6 10 9 10 2 3 5 5 5 3 3 1 4 5 3 3 5 3 2 4 4 7 11 11 10 8
5 2 2 4 5 5 2 3 11 8 5 7 4 8 6 3 5 3 3 4 5 11 5 4 3 3 3 1 1 2 4 3 4 4 5 4 7 6 6 7 9 11 9 9 9
3 3 4 8 11 5 5 4 7 9 4 4 2 11 5 3 5 4 2 1 1 5 4 5 3 3 4 5 1 2 4 5 2 2 5 2 6 7 4 5 7 9 8 9 8
3 3 5 5 5 3 2 6 10 17 7 10 4 4 4 2 7 6 6 7 3 3 2 3 3 2 3 3 3 4 5 4 2 3 4 5 5 4 3 6 9 11 9 8 9
Wind_Direction
345 341 335 332 330 328 322 321 318 319 317 310 302 302 303 304 298 292 283 285 278 235 222 205 197 188 193 204 202 180 93 204 209 165 226 135 142 90 110 137 157 168 155 178 173
342 342 342 340 335 332 327 327 326 324 315 315 316 307 298 303 303 288 286 280 261 232 207 203 193 189 186 196 193 148 169 215 225 185 169 116 124 137 126 103 70 156 158 165 174
351 348 345 345 342 339 337 331 328 324 319 312 306 311 309 310 308 288 263 256 234 197 203 207 204 193 193 184 192 179 209 224 236 160 134 122 88 63 129 205 205 196 161 170 178
350 347 348 343 342 338 335 330 328 327 322 314 309 296 307 305 271 219 268 290 214 190 209 205 203 179 172 188 193 179 222 222 211 184 128 170 188 337 197 182 179 202 188 176 183
353 348 345 341 339 338 334 328 328 332 323 316 308 297 304 270 250 249 269 279 203 194 203 203 195 176 179 187 176 217 209 222 241 262 236 186 198 213 228 201 166 168 184 189 190
349 345 342 340 339 337 334 329 327 329 327 315 306 286 271 258 270 286 255 219 210 201 200 205 208 198 201 197 171 206 213 240 259 225 219 174 227 187 229 219 197 194 197 201 198
346 344 341 340 339 336 333 326 326 317 323 307 298 265 257 248 244 270 232 212 216 220 208 210 211 193 192 174 216 166 164 281 224 208 228 195 261 223 229 218 210 211 207 208 208
342 341 341 339 339 337 332 327 326 325 313 305 289 237 250 262 246 245 256 256 220 218 217 217 216 209 180 141 47 139 77 184 258 176 236 152 252 279 189 212 206 203 212 214 211
346 343 342 339 339 336 331 330 327 325 303 332 280 207 262 262 277 314 262 241 217 220 217 224 208 183 144 107 32 352 205 208 308 199 142 185 275 258 251 215 217 216 211 211 209
344 345 342 340 340 339 338 335 341 332 278 314 257 218 265 257 292 320 292 214 198 186 162 169 156 122 85 145 211 199 183 254 225 180 161 191 258 299 336 164 166 167 173 197 205
344 345 341 341 341 342 351 3 12 334 321 279 265 266 275 280 298 309 260 188 194 162 143 158 135 203 166 164 147 149 179 208 232 246 156 215 224 231 250 78 132 160 174 184 191
345 344 342 340 341 351 2 29 350 314 309 298 278 269 271 270 291 274 197 162 184 164 114 77 234 166 161 165 154 159 185 256 299 251 160 157 247 246 147 276 246 205 181 180 177
343 344 343 339 343 350 3 359 344 327 287 303 313 297 332 221 224 250 211 248 137 132 156 157 193 176 146 158 188 205 225 234 212 330 77 127 301 284 98 73 19 194 197 183 182
343 343 343 338 348 348 356 337 333 321 292 285 4 332 347 272 242 221 199 165 208 177 147 210 238 116 135 198 192 201 196 219 202 136 226 25 264 282 288 33 72 130 169 182 180
343 343 341 342 336 344 338 340 335 328 3 322 313 317 330 224 316 250 228 229 181 156 137 235 215 194 177 203 167 211 113 155 105 95 22 344 57 269 50 279 223 196 178 177 180
343 344 341 344 341 342 335 338 14 42 278 318 328 332 350 352 5 36 158 114 307 147 85 191 161 144 154 77 141 140 73 53 62 106 360 239 149 271 200 214 179 173 184 180 179
343 342 342 344 341 344 345 356 36 97 333 321 331 326 333 332 348 14 131 144 182 121 198 178 21 357 112 87 57 93 88 39 15 2 220 245 82 245 247 143 217 180 173 168 172
343 343 358 349 347 343 344 50 67 263 268 306 302 317 0 4 8 360 140 139 213 76 108 157 174 334 337 133 165 148 139 153 186 196 247 158 225 253 290 324 268 170 162 168 189
344 346 9 351 344 348 7 45 207 251 312 314 316 353 316 340 18 330 257 158 195 188 138 131 90 5 15 76 155 168 176 169 105 250 47 229 290 344 32 53 107 134 163 180 213
347 343 4 351 348 1 57 324 296 314 321 319 300 21 316 323 350 279 164 357 181 172 66 184 107 93 301 60 20 87 149 88 7 131 234 291 274 246 221 204 181 187 193 202 245
352 340 355 358 355 36 44 287 301 304 320 271 297 288 285 307 277 354 10 66 322 113 170 133 96 230 135 177 177 137 54 60 112 122 162 227 266 213 223 206 193 213 198 199 281
354 352 351 2 38 10 4 313 298 307 332 312 310 304 304 303 351 18 36 6 356 36 73 46 106 118 167 311 302 142 153 136 124 248 106 141 276 332 265 201 186 201 203 252 287
349 310 348 13 58 334 306 300 305 320 310 341 308 15 313 309 27 14 3 354 7 55 80 128 293 93 20 355 349 197 148 112 109 107 195 136 263 48 75 95 186 212 242 267 294
4 356 333 13 15 106 322 302 337 325 293 339 289 341 334 345 2 0 11 8 356 18 25 169 103 143 179 203 142 145 86 137 117 140 182 221 260 251 225 230 236 246 260 259 284
23 316 328 314 327 326 303 302 333 340 324 330 322 5 336 322 341 0 354 8 3 359 17 74 92 82 31 61 64 137 142 159 159 171 178 242 202 255 216 211 233 274 251 257 285
20 352 321 296 306 351 343 308 315 326 266 300 6 333 343 16 8 315 5 62 312 355 43 351 105 77 4 43 74 229 229 189 173 197 260 189 266 230 277 237 234 228 232 267 293
340 303 316 284 328 39 259 336 314 313 279 254 327 305 319 23 3 22 62 67 86 132 45 66 114 76 254 350 358 348 233 182 175 220 170 219 243 176 237 242 254 244 237 280 296
Height
1516 1513 1509 1505 1501 1498 1496 1493 1490 1488 1484 1482 1480 1477 1474 1471 1467 1464 1460 1461 1461 1461 1463 1465 1467 1469 1472 1475 1475 1475 1482 1483 1472 1473 1467 1465 1466 1467 1468 1469 1471 1471 1472 1474 1477
1514 1511 1507 1503 1499 1496 1492 1489 1486 1482 1481 1478 1476 1473 1469 1467 1462 1456 1456 1454 1453 1456 1456 1460 1463 1466 1469 1471 1472 1474 1481 1474 1465 1461 1462 1464 1465 1467 1468 1470 1472 1472 1473 1474 1478
1514 1510 1506 1503 1499 1495 1490 1486 1482 1478 1475 1474 1473 1471 1466 1463 1458 1447 1446 1446 1445 1450 1453 1458 1460 1463 1466 1467 1468 1469 1473 1467 1462 1462 1461 1462 1465 1466 1468 1471 1470 1471 1472 1475 1478
1512 1508 1504 1501 1497 1493 1489 1484 1480 1475 1472 1469 1467 1467 1465 1464 1462 1443 1445 1445 1444 1447 1452 1453 1456 1459 1463 1464 1463 1467 1463 1464 1462 1462 1463 1463 1464 1465 1468 1469 1469 1470 1472 1475 1478
1510 1506 1501 1496 1491 1487 1484 1479 1476 1471 1468 1464 1461 1462 1461 1458 1440 1445 1444 1445 1444 1444 1447 1450 1452 1455 1460 1459 1462 1463 1460 1461 1462 1462 1462 1463 1464 1465 1465 1468 1469 1470 1473 1475 1477
1509 1504 1499 1494 1488 1483 1478 1474 1471 1467 1463 1459 1456 1457 1458 1450 1439 1438 1437 1440 1441 1442 1444 1447 1449 1453 1454 1456 1459 1457 1457 1458 1460 1461 1462 1462 1464 1465 1464 1466 1468 1470 1472 1474 1476
1508 1503 1497 1492 1485 1481 1474 1470 1465 1461 1457 1453 1450 1451 1450 1429 1433 1436 1433 1436 1440 1440 1441 1444 1448 1450 1451 1454 1455 1455 1459 1458 1459 1460 1460 1461 1462 1462 1461 1463 1464 1468 1470 1472 1475
1506 1501 1495 1489 1483 1477 1471 1464 1460 1455 1450 1448 1444 1445 1437 1426 1429 1429 1432 1432 1435 1438 1441 1444 1446 1449 1449 1453 1454 1457 1461 1465 1456 1457 1458 1460 1462 1455 1456 1459 1462 1463 1467 1470 1473
1504 1498 1492 1487 1480 1472 1464 1458 1454 1450 1445 1443 1441 1440 1431 1427 1426 1425 1426 1428 1432 1435 1437 1440 1444 1446 1449 1455 1462 1462 1468 1466 1459 1454 1456 1460 1460 1452 1453 1453 1456 1460 1463 1467 1471
1504 1498 1491 1484 1478 1470 1461 1451 1448 1445 1444 1442 1440 1442 1429 1425 1424 1422 1420 1423 1429 1432 1437 1439 1441 1446 1451 1454 1457 1464 1466 1464 1462 1454 1456 1460 1459 1454 1453 1451 1454 1458 1461 1466 1470
1500 1495 1490 1481 1475 1467 1458 1446 1449 1449 1447 1449 1439 1434 1427 1423 1423 1420 1418 1421 1428 1429 1436 1438 1443 1442 1448 1448 1452 1456 1461 1460 1457 1454 1455 1460 1459 1455 1455 1454 1455 1458 1461 1464 1467
1498 1492 1486 1482 1475 1469 1462 1459 1466 1465 1441 1434 1428 1425 1419 1422 1423 1420 1418 1423 1425 1428 1433 1441 1442 1442 1443 1447 1450 1454 1457 1461 1457 1454 1457 1459 1459 1453 1454 1455 1457 1458 1459 1462 1465
1497 1490 1484 1479 1473 1470 1464 1462 1463 1461 1453 1428 1424 1421 1417 1417 1420 1417 1421 1421 1423 1431 1435 1440 1434 1435 1441 1447 1451 1455 1455 1460 1461 1455 1457 1456 1461 1458 1456 1456 1457 1457 1459 1462 1464
1497 1490 1479 1475 1472 1468 1464 1460 1460 1459 1454 1437 1427 1423 1421 1418 1416 1413 1418 1426 1428 1430 1436 1438 1432 1436 1440 1444 1447 1457 1452 1452 1456 1457 1472 1464 1483 1458 1454 1459 1458 1458 1459 1462 1465
1493 1488 1483 1473 1471 1468 1465 1458 1456 1457 1483 1432 1426 1423 1420 1419 1415 1414 1417 1423 1421 1424 1431 1436 1431 1435 1438 1441 1444 1449 1447 1453 1457 1467 1466 1469 1489 1461 1457 1461 1457 1458 1459 1463 1466
1492 1484 1478 1478 1473 1466 1461 1457 1455 1471 1485 1438 1429 1426 1422 1418 1415 1415 1418 1423 1423 1423 1428 1430 1429 1431 1431 1437 1438 1447 1452 1460 1468 1472 1494 1485 1478 1463 1465 1459 1455 1458 1460 1463 1466
1489 1485 1477 1475 1471 1464 1459 1455 1469 1481 1447 1441 1434 1429 1426 1423 1419 1419 1421 1423 1424 1432 1433 1430 1432 1431 1432 1439 1443 1448 1456 1481 1484 1487 1494 1481 1481 1462 1452 1453 1455 1456 1459 1463 1465
1490 1483 1479 1479 1469 1463 1458 1459 1484 1458 1454 1444 1438 1430 1428 1427 1424 1424 1423 1424 1426 1427 1446 1431 1438 1436 1435 1436 1445 1448 1454 1484 1497 1500 1486 1475 1479 1452 1453 1454 1453 1456 1460 1463 1465
1484 1482 1477 1476 1470 1462 1460 1480 1475 1467 1456 1450 1439 1437 1435 1427 1429 1423 1423 1424 1425 1426 1435 1437 1440 1440 1438 1437 1441 1451 1461 1459 1484 1488 1484 1465 1456 1453 1455 1457 1457 1457 1461 1463 1464
1482 1479 1475 1474 1471 1463 1465 1468 1464 1459 1456 1452 1449 1442 1440 1431 1432 1426 1431 1427 1425 1428 1428 1438 1447 1444 1440 1439 1443 1444 1451 1462 1480 1497 1481 1469 1460 1455 1457 1457 1458 1459 1459 1461 1462
1480 1482 1477 1475 1471 1466 1477 1473 1465 1458 1457 1453 1448 1447 1441 1437 1431 1426 1428 1429 1427 1427 1425 1432 1441 1451 1445 1443 1448 1452 1463 1462 1466 1480 1497 1489 1459 1458 1460 1455 1456 1457 1458 1460 1460
1483 1488 1480 1474 1475 1476 1481 1475 1468 1460 1455 1451 1448 1446 1442 1437 1435 1430 1430 1430 1428 1428 1428 1432 1445 1451 1447 1446 1445 1443 1447 1452 1470 1488 1483 1491 1463 1453 1454 1452 1454 1456 1458 1459 1459
1489 1488 1484 1480 1490 1486 1477 1473 1469 1464 1459 1454 1452 1449 1444 1439 1444 1435 1432 1434 1431 1429 1432 1436 1450 1455 1452 1450 1446 1443 1446 1455 1465 1475 1480 1482 1462 1453 1452 1454 1455 1456 1457 1457 1457
1492 1494 1487 1484 1487 1486 1482 1473 1470 1464 1460 1457 1454 1450 1446 1443 1440 1437 1435 1435 1434 1433 1433 1433 1448 1456 1454 1456 1455 1458 1457 1450 1456 1464 1486 1471 1458 1451 1454 1456 1454 1453 1454 1455 1454
1495 1497 1497 1494 1488 1485 1483 1478 1473 1469 1462 1459 1454 1453 1451 1452 1447 1442 1439 1439 1438 1438 1437 1439 1451 1455 1447 1446 1450 1448 1459 1465 1466 1459 1458 1463 1465 1454 1451 1452 1451 1451 1450 1451 1451
1495 1498 1498 1493 1490 1486 1483 1482 1477 1471 1469 1460 1458 1455 1453 1452 1451 1448 1447 1446 1444 1443 1446 1446 1446 1457 1461 1451 1452 1451 1447 1454 1461 1455 1459 1463 1461 1449 1448 1448 1449 1448 1449 1449 1449
1496 1497 1499 1493 1491 1491 1487 1482 1477 1474 1462 1461 1459 1457 1454 1453 1453 1451 1449 1448 1448 1451 1454 1457 1460 1470 1475 1460 1469 1463 1462 1457 1455 1455 1451 1456 1446 1447 1447 1447 1447 1447 1448 1448 1448